This demonstration page uses our WeatherBlox Daily Observations layout. Learn more.

Left ArrowRight Arrow

44.8408, -93.29828

Hourly Observations for April 14, 2019

Temp ( °F °C ) Dew Point ( °F °C ) Humidity (%) Winds ( mph kmh ) Pressure ( in mb ) Visibility ( mi km ) Precip ( " mm )
12:53 am 00:53 Clear 31 -0.6 23 -5 72 72 Calm 30.11 1020 10 16 0.00 0.00
1:53 am 01:53 Clear 29 -1.7 23 -5 78 78 Calm 30.09 1019 10 16 0.00 0.00
2:53 am 02:53 Clear 27 -2.8 23 -5 85 85 Calm 30.07 1018 10 16 0.00 0.00
3:53 am 03:53 Clear 26 -3.3 23 -5 88 88 Calm 30.06 1018 10 16 0.00 0.00
4:53 am 04:53 Clear 26 -3.3 23 -5 88 88 Calm 30.07 1018 10 16 0.00 0.00
5:53 am 05:53 Mostly Cloudy 27 -2.8 24 -4.4 89 89 Calm 30.08 1019 10 16 0.00 0.00
6:53 am 06:53 Cloudy 30 -1.1 23 -5 75 75 NNE 6 9 30.06 1018 10 16 0.00 0.00
7:53 am 07:53 Mostly Cloudy 32 0 23 -5 69 69 NE 5 7 30.04 1017 10 16 0.00 0.00
8:53 am 08:53 Cloudy 34 1.1 23 -5 64 64 NNE 7 11 30.01 1016 10 16 0.00 0.00
9:53 am 09:53 Cloudy 36 2.2 23 -5 59 59 E 9 15 29.99 1016 10 16 0.00 0.00
10:53 am 10:53 Mostly Cloudy 39 3.9 25 -3.9 57 57 ESE 10 17 29.97 1015 10 16 0.00 0.00
11:53 am 11:53 Mostly Cloudy 40 4.4 24 -4.4 53 53 E 9 15 29.96 1015 10 16 0.00 0.00
12:53 pm 12:53 Mostly Cloudy 42 5.6 25 -3.9 51 51 NNE 12 19 29.93 1014 10 16 0.00 0.00
12:58 pm 12:58 Partly Cloudy 42 5.6 24 -4.4 49 49 NE 7 11 29.94 1014 10 16 0.00 0.00
1:53 pm 13:53 Mostly Sunny 43 6.1 23 -5 45 45 E 9 15 29.91 1013 10 16 0.00 0.00
2:53 pm 14:53 Sunny 45 7.2 24 -4.4 44 44 E 7 11 29.88 1012 10 16 0.00 0.00
3:53 pm 15:53 Sunny 47 8.3 25 -3.9 42 42 N 12 19 29.86 1011 10 16 0.00 0.00
4:53 pm 16:53 Sunny 47 8.3 23 -5 39 39 N 6 9 29.86 1011 10 16 0.00 0.00
5:53 pm 17:53 Sunny 47 8.3 23 -5 39 39 NNE 10 17 29.86 1011 10 16 0.00 0.00
6:53 pm 18:53 Mostly Sunny 46 7.8 20 -6.7 35 35 ESE 7 11 29.87 1012 10 16 0.00 0.00
7:53 pm 19:53 Partly Cloudy 45 7.2 20 -6.7 37 37 E 5 7 29.87 1012 10 16 0.00 0.00
8:53 pm 20:53 Mostly Clear 44 6.7 21 -6.1 40 40 SW 3 6 29.87 1012 10 16 0.00 0.00
9:53 pm 21:53 Mostly Clear 41 5 21 -6.1 45 45 SW 6 9 29.89 1012 10 16 0.00 0.00
10:53 pm 22:53 Mostly Clear 39 3.9 23 -5 53 53 WSW 3 6 29.90 1013 10 16 0.00 0.00
11:53 pm 23:53 Mostly Clear 36 2.2 24 -4.4 62 62 Calm 29.90 1013 10 16 0.00 0.00

Powered by AerisWeather